Volver al catálogo

CZ-6A DEB

ActivoSSO
NORAD 54956·DEBRIS·🇨🇳 China

Lanzado Nov 11, 2022 desde Taiyuan Satellite Launch Center

Loading…

Próximos Pases (próximas 24 horas)

TLE

ActualizadoSource: Space-Track

Época: Sep 14, 2026, 09:18 UTC

1 54956U 22151SV  26257.38796043  .00000595  00000-0  39530-3 0  9994
2 54956  98.9114 233.9520 0133921 115.7484 245.7574 14.00772835195732

Sigue CZ-6A DEB en tiempo real con AllMySat

Download on the App Store